Weather History for Idaho Falls, ID

Change the Weather History Date:

Tuesday, July 23, 2013

  Actual Average Record
Temperature  
Mean Temperature 69 °F 69 °F  
Max Temperature 92 °F 88 °F 100 °F (2003)
Min Temperature 45 °F 51 °F 40 °F (1954)
Degree Days  
Heating Degree Days 0 0  
Month to date heating degree days 0 25  
Since 1 June heating degree days 100 178  
Since 1 July heating degree days 0 25  
Cooling Degree Days 4 5  
Month to date cooling degree days 175 88  
Year to date cooling degree days 248 120  
Since 1 June cooling degree days 244 118  
Growing Degree Days 18 (Base 50)    
Moisture  
Dew Point 37 °F    
Average Humidity 43    
Maximum Humidity 76    
Minimum Humidity 9    
Precipitation  
Precipitation 0.00 in 0.02 in 0.61 in (1993)
Month to date precipitation 0.30 0.38  
Year to date precipitation 2.24 6.32  
Sea Level Pressure  
Sea Level Pressure 29.98 in    
Wind  
Wind Speed 3 mph (NW)    
Max Wind Speed 12 mph    
Max Gust Speed 12 mph    
Visibility 10 miles    
Events      
T = Trace of Precipitation, MM = Missing Value Source: NWS Daily Summary

Daily Weather History Graph

Daily Weather History Graph

Search for Another Location

Airport:

Trip Planner

Search our weather history database for the weather conditions in past years. The results will help you decide how hot, cold, wet, or windy it might be!

Date:

Astronomy

Jul. 23, 2013 Rise Set
Actual Time 6:08 AM MDT 9:00 PM MDT
Civil Twilight 5:35 AM MDT 9:33 PM MDT
Nautical Twilight 4:52 AM MDT 10:16 PM MDT
Astronomical Twilight 4:02 AM MDT 11:05 PM MDT
Moon 9:25 PM MDT (7/23) 7:25 AM MDT (7/23)
Length of Visible Light 15h 58m
Length of Day
14h 51m
Full, 99% of the Moon is Illuminated
Jul 23
Full
Jul 29
Last Quarter
Aug 6
New
Aug 14
First Quarter
Aug 20
Full

Hourly Weather History & Observations

Time (MDT) Temp. Dew Point Humidity Pressure Visibility Wind Dir Wind Speed Gust Speed Precip Events Conditions
12:53 AM 60.1 °F 39.0 °F 46% 29.89 in 10.0 mi SW 5.8 mph - N/A   Clear
1:53 AM 55.0 °F 41.0 °F 59% 29.92 in 10.0 mi West 10.4 mph - N/A   Clear
2:53 AM 55.0 °F 37.9 °F 53% 29.92 in 10.0 mi WNW 4.6 mph - N/A   Clear
3:53 AM 51.1 °F 39.0 °F 63% 29.95 in 10.0 mi North 3.5 mph - N/A   Clear
4:53 AM 46.9 °F 39.9 °F 77% 29.97 in 10.0 mi Calm Calm - N/A   Clear
5:53 AM 50.0 °F 39.0 °F 66% 29.99 in 10.0 mi Calm Calm - N/A   Clear
6:53 AM 48.9 °F 39.0 °F 69% 30.01 in 10.0 mi Calm Calm - N/A   Clear
7:53 AM 55.0 °F 44.1 °F 67% 30.03 in 10.0 mi NNE 3.5 mph - N/A   Clear
8:53 AM 63.0 °F 44.1 °F 50% 30.03 in 10.0 mi NNE 5.8 mph - N/A   Clear
9:53 AM 71.1 °F 41.0 °F 34% 30.02 in 10.0 mi North 6.9 mph - N/A   Clear
10:53 AM 78.1 °F 34.0 °F 20% 30.03 in 10.0 mi Calm Calm - N/A   Clear
11:53 AM 80.1 °F 42.1 °F 26% 30.02 in 10.0 mi NW 5.8 mph - N/A   Clear
12:53 PM 84.0 °F 34.0 °F 17% 30.02 in 10.0 mi WNW 3.5 mph - N/A   Clear
1:53 PM 86.0 °F 26.1 °F 11% 30.01 in 10.0 mi Variable 4.6 mph - N/A   Clear
2:53 PM 87.1 °F 27.0 °F 11% 30.01 in 10.0 mi NNW 3.5 mph - N/A   Clear
3:53 PM 90.0 °F 28.9 °F 11% 29.99 in 10.0 mi Calm Calm - N/A   Clear
4:53 PM 89.1 °F 30.9 °F 12% 29.99 in 10.0 mi Calm Calm - N/A   Scattered Clouds
5:53 PM 88.0 °F 28.9 °F 12% 29.97 in 10.0 mi SSW 6.9 mph - N/A   Scattered Clouds
6:53 PM 89.1 °F 23.0 °F 9% 29.95 in 10.0 mi South 5.8 mph - N/A   Scattered Clouds
7:53 PM 89.1 °F 23.0 °F 9% 29.94 in 10.0 mi Calm Calm - N/A   Clear
8:53 PM 69.1 °F 52.0 °F 54% 29.97 in 10.0 mi West 5.8 mph - N/A   Clear
9:53 PM 80.1 °F 35.1 °F 20% 29.95 in 10.0 mi Calm Calm - N/A   Clear
10:53 PM 66.9 °F 48.0 °F 51% 29.97 in 10.0 mi Calm Calm - N/A   Clear
11:53 PM 64.9 °F 46.9 °F 52% 29.97 in 10.0 mi Calm Calm - N/A   Clear